Regional Weather Roundup
Issued by NWS Jackson, KY

Home | Current Version | Previous Version | Graphics & Text | Print | Product List | Glossary Off
Versions: 1 2 3 4 5 6 7 8 9 10 11 12 13 14 15 16 17 18 19 20 21 22 23 24 25 26 27 28 29 30 31 32 33 34 35 36 37 38 39 40 41 42 43 44 45 46 47 48 49 50

000
ASUS43 KJKL 291210
RWRJKL

EAST KENTUCKY HOURLY WEATHER ROUNDUP
NATIONAL WEATHER SERVICE JACKSON KY
800 AM EDT WED JUL 29 2015

NOTE: "FAIR" INDICATES FEW OR NO CLOUDS BELOW 12,000 FEET WITH
NO SIGNIFICANT WEATHER AND/OR OBSTRUCTIONS TO VISIBILITY.

* THESE REPORTS ARE NOT UNDER NWS QUALITY CONTROL AND MAY NOT
  REPORT WEATHER SUCH AS PRECIPITATION AND FOG.

KYZ079-080-083-085-087-088-110-112-115-119-120-291300
...EASTERN KENTUCKY...

CITY           SKY/WX    TMP DP  RH WIND       PRES   REMARKS
JACKSON        CLOUDY    72  71  97 CALM      30.05R FOG
6HR MIN TEMP:  71; 6HR MAX TEMP:  73;

LONDON         CLOUDY    73  69  87 SW3       30.05S FOG
6HR MIN TEMP:  71; 6HR MAX TEMP:  73;

SOMERSET*      CLOUDY    70  70 100 W3        30.05S FOG
MONTICELLO*    MOSUNNY   73  73 100 CALM      30.07S FOG
6HR MIN TEMP:  70; 6HR MAX TEMP:  73;

MIDDLESBORO*   CLOUDY    72  71  97 CALM      30.07R
6HR MIN TEMP:  72; 6HR MAX TEMP:  73;

BLACK MTN*       N/A     68  66  94 N1          N/A
PIKEVILLE APT* FOG       72  72 100 CALM      30.05R VSB 1/2
BIG SANDY*     MOSUNNY   74  73  99 CALM      30.04R FOG
6HR MIN TEMP:  73; 6HR MAX TEMP:  75;

MOREHEAD APT*  FOG       70  70 100 CALM      30.04S VSB<1/4
$$

KYZ035-036-041-042-044-050-067-078-099-291300
...CENTRAL KENTUCKY...

CITY           SKY/WX    TMP DP  RH WIND       PRES   REMARKS
MT STERLING*   SUNNY     72  72 100 CALM      30.03S FOG
FLEMING/MASON* SUNNY     72  72 100 SW5       30.02S FOG
DANVILLE*      PTSUNNY   70  70 100 CALM      30.04S FOG
RICHMOND*      SUNNY     72  68  88 S5        30.03S
LEXINGTON      MOSUNNY   73  71  93 SW3       30.02R FOG
6HR MIN TEMP:  70; 6HR MAX TEMP:  73;

FRANKFORT      MOSUNNY   73  71  93 SW3       30.00S FOG
6HR MIN TEMP:  71; 6HR MAX TEMP:  74;

$$

KYZ091>093-OHZ055-061-077-WVZ005-015-034-035-042-291300
...SOUTHERN OHIO/WEST VIRGINIA...

CITY           SKY/WX    TMP DP  RH WIND       PRES   REMARKS
COVINGTON      MOSUNNY   76  74  93 CALM      30.00R FOG
COLUMBUS       MOSUNNY   75  67  76 CALM      29.98S
DAYTON         MOSUNNY   77  73  87 CALM      30.01R
WILMINGTON     SUNNY     72  70  93 CALM      30.00R FOG
HUNTINGTON     MOSUNNY   72  72 100 S3        30.00R FOG
CHARLESTON     MOSUNNY   72  71  97 CALM      30.01R FOG
PINEVILLE*     CLOUDY    72  72 100 MISG      30.11R FOG
BECKLEY        PTSUNNY   71  68  90 SE5       30.10R
BLUEFIELD      CLOUDY    74  67  78 CALM      30.13R
$$

VAZ002-007-008-TNZ017-027-036-066-071-291300
...SOUTHWEST VIRGINIA/EAST TENNESSEE...

CITY           SKY/WX    TMP DP  RH WIND       PRES   REMARKS
WISE*          FOG       70  70 100 S3        30.12R VSB<1/4
ABINGDON*      CLOUDY    71  70  95 CALM      30.09R FOG
BRISTOL        MOSUNNY   71  69  93 CALM      30.07R
KNOXVILLE      PTSUNNY   76  73  91 NW3       30.03R
OAK RIDGE      CLOUDY    75  72  90 CALM      30.05R
CROSSVILLE     SUNNY     72  68  87 CALM      30.10R FOG
NASHVILLE      PTSUNNY   75  73  93 CALM      30.04R
$$

...KEY TO REMARKS...
VSB - VISIBILITY IN MILES
WCI - WIND CHILL INDEX
HX  - HEAT INDEX

$$


USA.gov is the U.S. government's official web portal to all federal, state and local government web resources and services.